Location: Zerbst
(51.9650°N, 12.0766°E)
Time: 11:46:07
(UTC+02:00)

ISS - Pass Details

Date: 19 May 2017
Orbit: 401 x 407 km, 51.6° (Epoch: 25 September)

Event Time Altitude Azimuth Distance (km) Brightness Sun altitude
Exits shadow 03:10:31 13° 263° (W) 1,331 -1.6 -13.5°
Maximum altitude 03:13:28 85° 178° (S) 421 -3.9 -13.2°
Drops below altitude 10° 03:16:48 10° 87° (E) 1,483 -0.5 -13.0°
Sets 03:18:53 0° 87° (E) 2,342 0.5 -12.8°
